Startpagina
METAR-TAF:

METAR-TAF

Vliegvelden :

J6-a, Nederland

Productieplatform

breedte: 53-49-27N, lengte: 2-56-43E, hoogte: 34 m

Actueel weer

Dit bericht is 28 minuten geleden gemaakt, om 06:25 UTC
Wind 18 kt uit het noordwesten, variërend tussen het westen en het noorden
Temperatuur 16°C
Vochtigheid 88%
Druk 1013 hPa
Zicht 10 km of meer

METAR: EHJA 250625Z AUTO 32018KT 270V360 9999 FEW007/// SCT011/// 16/14 Q1013

Tijdstip: 08:53 (06:53 UTC)


TAF: ontbreekt

Waarnemingen en weersverwachtingen van meer dan 4000 vliegvelden (METAR en TAF).

De beschikbare stations zijn de gele en rode punten op de kaart.

Ga met uw muis naar het station om de naam te zien.

Klik dan om waarnemingen en weersverwachtingen te zien.

kaart wijzigen: klik op de groene knoppen met een zwart kruis om in te zoomen, op de groene knop met een streepje om uit te zoomen of op de groene pijlen voor aangrenzende kaarten.


METAR-TAF: